Weather History for Eagle Creek, IN

Change the Weather History Date:

Sunday, November 4, 2012

  Actual Average Record
Temperature  
Mean Temperature 38 °F 49 °F  
Max Temperature 45 °F 57 °F 77 °F (2003)
Min Temperature 30 °F 40 °F 28 °F (1996)
Degree Days  
Heating Degree Days 27 16  
Month to date heating degree days 100 63  
Since 1 July heating degree days 600 455  
Cooling Degree Days 0 0  
Month to date cooling degree days 0 0  
Year to date cooling degree days 1339 1058  
Moisture  
Dew Point 30 °F    
Average Humidity 75    
Maximum Humidity 92    
Minimum Humidity 58    
Precipitation  
Precipitation 0.00 in 0.13 in 0.29 in (2014)
Month to date precipitation 0.11 0.53  
Year to date precipitation 33.95 34.54  
Sea Level Pressure  
Sea Level Pressure 30.19 in    
Wind  
Wind Speed 4 mph (North)    
Max Wind Speed 13 mph    
Max Gust Speed 24 mph    
Visibility 10 miles    
Events      
T = Trace of Precipitation, MM = Missing Value Source: NWS Daily Summary

Daily Weather History Graph

Daily Weather History Graph

Search for Another Location

Airport:

Trip Planner

Search our weather history database for the weather conditions in past years. The results will help you decide how hot, cold, wet, or windy it might be!

Date:

Astronomy

Nov. 04, 2012 Rise Set
Actual Time 7:17 AM EST 5:39 PM EST
Civil Twilight 6:49 AM EST 6:07 PM EST
Nautical Twilight 6:17 AM EST 6:39 PM EST
Astronomical Twilight 5:45 AM EST 7:10 PM EST
Moon 10:16 PM EST (11/4) 12:01 PM EST (11/4)
Length of Visible Light 11h 17m
Length of Day
10h 21m
Waning Gibbous, 72% of the Moon is Illuminated
Nov 4
Waning Gibbous
Nov 6
Last Quarter
Nov 13
New
Nov 20
First Quarter
Nov 28
Full

Hourly Weather History & Observations

Time (EST) Temp. Windchill Dew Point Humidity Pressure Visibility Wind Dir Wind Speed Gust Speed Precip Events Conditions
12:53 AM 35.1 °F 31.0 °F 32.0 °F 89% 30.17 in 10.0 mi North 4.6 mph - N/A   Clear
1:53 AM 35.1 °F 31.0 °F 32.0 °F 89% 30.18 in 10.0 mi NNW 4.6 mph - N/A   Clear
1:53 AM 34.0 °F 28.0 °F 30.9 °F 89% 30.17 in 10.0 mi North 6.9 mph - N/A   Clear
2:53 AM 32.0 °F 27.5 °F 28.9 °F 88% 30.18 in 10.0 mi North 4.6 mph - N/A   Clear
3:53 AM 30.9 °F 26.2 °F 28.9 °F 92% 30.18 in 10.0 mi North 4.6 mph - N/A   Clear
4:53 AM 30.9 °F - 28.0 °F 89% 30.19 in 10.0 mi Calm Calm - N/A   Clear
5:53 AM 30.9 °F 27.5 °F 28.0 °F 89% 30.19 in 10.0 mi North 3.5 mph - N/A   Clear
6:53 AM 30.9 °F 26.2 °F 28.0 °F 89% 30.20 in 10.0 mi North 4.6 mph - N/A   Mostly Cloudy
7:53 AM 32.0 °F 27.5 °F 28.0 °F 85% 30.22 in 10.0 mi North 4.6 mph - N/A   Mostly Cloudy
8:53 AM 34.0 °F 29.8 °F 28.9 °F 82% 30.22 in 10.0 mi NNE 4.6 mph - N/A   Clear
9:53 AM 37.9 °F 32.7 °F 28.0 °F 68% 30.22 in 10.0 mi NNE 6.9 mph - N/A   Clear
10:53 AM 41.0 °F 35.8 °F 30.0 °F 65% 30.21 in 10.0 mi NNE 8.1 mph - N/A   Scattered Clouds
11:53 AM 41.0 °F 35.8 °F 30.0 °F 65% 30.22 in 10.0 mi North 8.1 mph - N/A   Overcast
12:53 PM 43.0 °F 38.8 °F 30.9 °F 62% 30.21 in 10.0 mi North 6.9 mph - N/A   Mostly Cloudy
1:30 PM 42.8 °F 38.0 °F 30.2 °F 61% 30.18 in 10.0 mi NNW 8.1 mph - N/A   Mostly Cloudy
1:53 PM 42.1 °F 36.6 °F 30.0 °F 62% 30.19 in 10.0 mi North 9.2 mph - N/A   Mostly Cloudy
2:53 PM 43.0 °F 40.3 °F 30.9 °F 62% 30.18 in 10.0 mi North 4.6 mph - N/A   Overcast
3:53 PM 44.1 °F 40.1 °F 30.9 °F 60% 30.18 in 10.0 mi NNW 6.9 mph - N/A   Overcast
4:53 PM 42.1 °F 39.2 °F 30.0 °F 62% 30.18 in 10.0 mi North 4.6 mph - N/A   Mostly Cloudy
5:53 PM 41.0 °F 38.0 °F 30.0 °F 65% 30.18 in 10.0 mi NNE 4.6 mph - N/A   Overcast
6:53 PM 41.0 °F - 28.9 °F 62% 30.19 in 10.0 mi Calm Calm - N/A   Overcast
7:53 PM 39.0 °F 36.8 °F 30.0 °F 70% 30.18 in 10.0 mi NE 3.5 mph - N/A   Scattered Clouds
8:53 PM 37.0 °F - 28.9 °F 73% 30.19 in 10.0 mi Calm Calm - N/A   Clear
9:53 PM 33.1 °F - 28.0 °F 82% 30.19 in 10.0 mi Calm Calm - N/A   Clear
10:53 PM 32.0 °F - 28.9 °F 88% 30.18 in 9.0 mi Calm Calm - N/A   Clear